Location: Cheb
(50.0670°N, 12.3670°E)
Time: 07:45:26
(UTC+02:00)

ISS - Pass Details

Date: 28 March 2019
Orbit: 408 x 410 km, 51.6° (Epoch: 25 April)

Event Time Altitude Azimuth Distance (km) Brightness Sun altitude
Rises 20:54:31 0° 279° (W) 2,336 1.1 -21.6°
Reaches altitude 10° 20:56:37 10° 282° (WNW) 1,474 0.0 -21.9°
Enters shadow 20:59:22 54° 312° (NW) 506 -3.1 -22.2°
